Weather History for Somerset, KY

Change the Weather History Date:

Tuesday, May 14, 2013

  Actual Average Record
Temperature  
Mean Temperature 58 °F -  
Max Temperature 78 °F 76 °F 93 °F (1998)
Min Temperature 37 °F 52 °F 37 °F (2013)
Degree Days  
Heating Degree Days 8    
Growing Degree Days 8 (Base 50)    
Moisture  
Dew Point 45 °F    
Average Humidity 59    
Maximum Humidity 100    
Minimum Humidity 34    
Precipitation  
Precipitation 0.00 in - - ()
Sea Level Pressure  
Sea Level Pressure 30.11 in    
Wind  
Wind Speed 5 mph (SW)    
Max Wind Speed 20 mph    
Max Gust Speed 26 mph    
Visibility 10 miles    
Events      
Averages and records for this station are not official NWS values.
T = Trace of Precipitation, MM = Missing Value Source: NWS Daily Summary

Daily Weather History Graph

Daily Weather History Graph

Search for Another Location

Airport:

Trip Planner

Search our weather history database for the weather conditions in past years. The results will help you decide how hot, cold, wet, or windy it might be!

Date:

Astronomy

May. 14, 2013 Rise Set
Actual Time 6:30 AM EDT 8:39 PM EDT
Civil Twilight 6:01 AM EDT 9:08 PM EDT
Nautical Twilight 5:26 AM EDT 9:43 PM EDT
Astronomical Twilight 4:48 AM EDT 10:22 PM EDT
Moon 10:09 AM EDT (5/14) No Moon Set
Length of Visible Light 15h 06m
Length of Day
14h 08m
Waxing Crescent, 19% of the Moon is Illuminated
May 14
Waxing Crescent
May 18
First Quarter
May 25
Full
May 31
Last Quarter
Jun 8
New

Hourly Weather History & Observations

Time (EDT) Temp. Windchill Dew Point Humidity Pressure Visibility Wind Dir Wind Speed Gust Speed Precip Events Conditions
12:15 AM 44.6 °F - 37.4 °F 76% 30.22 in 10.0 mi Calm Calm - N/A   Clear
12:35 AM 42.8 °F - 37.4 °F 81% 30.22 in 10.0 mi Calm Calm - N/A   Clear
12:55 AM 42.8 °F - 37.4 °F 81% 30.21 in 10.0 mi Calm Calm - N/A   Clear
1:15 AM 42.8 °F - 37.4 °F 81% 30.21 in 10.0 mi Calm Calm - N/A   Clear
1:35 AM 41.0 °F - 37.4 °F 87% 30.21 in 10.0 mi Calm Calm - N/A   Clear
1:55 AM 41.0 °F - 37.4 °F 87% 30.20 in 10.0 mi Calm Calm - N/A   Clear
2:15 AM 41.0 °F - 37.4 °F 87% 30.20 in 10.0 mi Calm Calm - N/A   Clear
2:35 AM 41.0 °F - 37.4 °F 87% 30.20 in 10.0 mi Calm Calm - N/A   Clear
2:55 AM 41.0 °F - 37.4 °F 87% 30.19 in 10.0 mi Calm Calm - N/A   Clear
3:15 AM 41.0 °F - 37.4 °F 87% 30.19 in 10.0 mi Calm Calm - N/A   Clear
3:35 AM 39.2 °F - 37.4 °F 93% 30.18 in 10.0 mi Calm Calm - N/A   Clear
3:55 AM 39.2 °F - 37.4 °F 93% 30.19 in 10.0 mi Calm Calm - N/A   Clear
4:15 AM 37.4 °F - 37.4 °F 100% 30.18 in 10.0 mi Calm Calm - N/A   Clear
4:35 AM 39.2 °F - 37.4 °F 93% 30.19 in 10.0 mi Calm Calm - N/A   Clear
4:55 AM 39.2 °F - 37.4 °F 93% 30.19 in 10.0 mi Calm Calm - N/A   Clear
5:15 AM 37.4 °F 34.9 °F 35.6 °F 93% 30.19 in 10.0 mi SE 3.5 mph - N/A   Clear
5:35 AM 37.4 °F - 37.4 °F 100% 30.19 in 10.0 mi Calm Calm - N/A   Clear
5:55 AM 39.2 °F - 37.4 °F 93% 30.20 in 10.0 mi Calm Calm - N/A   Scattered Clouds
6:15 AM 41.0 °F - 39.2 °F 93% 30.19 in 10.0 mi Calm Calm - N/A   Scattered Clouds
6:35 AM 42.8 °F - 37.4 °F 81% 30.20 in 10.0 mi Calm Calm - N/A   Mostly Cloudy
6:55 AM 42.8 °F - 39.2 °F 87% 30.20 in 10.0 mi Calm Calm - N/A   Scattered Clouds
7:15 AM 44.6 °F 43.1 °F 39.2 °F 81% 30.20 in 10.0 mi South 3.5 mph - N/A   Mostly Cloudy
7:35 AM 44.6 °F 42.2 °F 37.4 °F 76% 30.20 in 10.0 mi South 4.6 mph - N/A   Overcast
7:55 AM 46.4 °F 44.3 °F 37.4 °F 71% 30.21 in 10.0 mi SSE 4.6 mph - N/A   Scattered Clouds
8:15 AM 46.4 °F 44.3 °F 37.4 °F 71% 30.20 in 10.0 mi South 4.6 mph - N/A   Clear
8:35 AM 48.2 °F - 37.4 °F 66% 30.20 in 10.0 mi SSE 6.9 mph - N/A   Clear
8:55 AM 51.8 °F - 37.4 °F 58% 30.20 in 10.0 mi South 8.1 mph - N/A   Clear
9:15 AM 51.8 °F - 37.4 °F 58% 30.20 in 10.0 mi South 6.9 mph - N/A   Clear
9:35 AM 53.6 °F - 39.2 °F 58% 30.20 in 10.0 mi South 9.2 mph - N/A   Scattered Clouds
9:55 AM 55.4 °F - 39.2 °F 54% 30.18 in 10.0 mi South 6.9 mph - N/A   Scattered Clouds
10:15 AM 59.0 °F - 39.2 °F 48% 30.18 in 10.0 mi SSW 9.2 mph - N/A   Clear
10:35 AM 60.8 °F - 41.0 °F 48% 30.17 in 10.0 mi South 6.9 mph - N/A   Clear
10:55 AM 62.6 °F - 41.0 °F 45% 30.16 in 10.0 mi South 9.2 mph - N/A   Clear
11:15 AM 64.4 °F - 42.8 °F 45% 30.16 in 10.0 mi South 6.9 mph - N/A   Clear
11:35 AM 66.2 °F - 42.8 °F 43% 30.15 in 10.0 mi SSW 8.1 mph - N/A   Clear
11:55 AM 68.0 °F - 42.8 °F 40% 30.15 in 10.0 mi SSW 10.4 mph 16.1 mph N/A   Clear
12:15 PM 69.8 °F - 44.6 °F 40% 30.13 in 10.0 mi SW 8.1 mph - N/A   Clear
12:35 PM 71.6 °F - 46.4 °F 41% 30.13 in 10.0 mi WSW 10.4 mph 17.3 mph N/A   Clear
12:55 PM 71.6 °F - 48.2 °F 43% 30.12 in 10.0 mi WSW 13.8 mph 20.7 mph N/A   Clear
1:15 PM 73.4 °F - 46.4 °F 38% 30.10 in 10.0 mi SW 13.8 mph 20.7 mph N/A   Clear
1:35 PM 73.4 °F - 48.2 °F 41% 30.10 in 10.0 mi WSW 19.6 mph 24.2 mph N/A   Clear
1:55 PM 75.2 °F - 48.2 °F 38% 30.08 in 10.0 mi WSW 16.1 mph 23.0 mph N/A   Clear
2:15 PM 77.0 °F - 48.2 °F 36% 30.08 in 10.0 mi WSW 16.1 mph 21.9 mph N/A   Clear
2:35 PM 77.0 °F - 46.4 °F 34% 30.07 in 10.0 mi WSW 15.0 mph 25.3 mph N/A   Clear
2:55 PM 77.0 °F - 50.0 °F 39% 30.05 in 10.0 mi WSW 11.5 mph 21.9 mph N/A   Clear
3:15 PM 78.8 °F - 48.2 °F 34% 30.05 in 10.0 mi WSW 16.1 mph 25.3 mph N/A   Clear
3:35 PM 78.8 °F - 50.0 °F 36% 30.03 in 10.0 mi WSW 16.1 mph 25.3 mph N/A   Clear
3:55 PM 78.8 °F - 50.0 °F 36% 30.02 in 10.0 mi WSW 18.4 mph 21.9 mph N/A   Clear
4:15 PM 78.8 °F - 50.0 °F 36% 30.02 in 10.0 mi WSW 13.8 mph 20.7 mph N/A   Clear
4:35 PM 78.8 °F - 50.0 °F 36% 30.01 in 10.0 mi WSW 15.0 mph 24.2 mph N/A   Clear
4:55 PM 78.8 °F - 50.0 °F 36% 30.01 in 10.0 mi WSW 16.1 mph 26.5 mph N/A   Clear
5:15 PM 78.8 °F - 51.8 °F 39% 30.01 in 10.0 mi WSW 15.0 mph 19.6 mph N/A   Clear
5:35 PM 78.8 °F - 51.8 °F 39% 30.00 in 10.0 mi WSW 11.5 mph 23.0 mph N/A   Clear
5:55 PM 78.8 °F - 50.0 °F 36% 30.00 in 10.0 mi SW 15.0 mph 19.6 mph N/A   Clear
6:15 PM 78.8 °F - 51.8 °F 39% 29.99 in 10.0 mi WSW 15.0 mph 20.7 mph N/A   Clear
6:35 PM 78.8 °F - 51.8 °F 39% 29.99 in 10.0 mi SW 11.5 mph - N/A   Clear
6:55 PM 78.8 °F - 51.8 °F 39% 29.98 in 10.0 mi SW 10.4 mph 16.1 mph N/A   Clear
7:15 PM 78.8 °F - 51.8 °F 39% 29.98 in 10.0 mi SW 11.5 mph 16.1 mph N/A   Clear
7:35 PM 78.8 °F - 51.8 °F 39% 29.98 in 10.0 mi SW 8.1 mph 19.6 mph N/A   Clear
7:55 PM 77.0 °F - 51.8 °F 41% 29.98 in 10.0 mi SW 9.2 mph - N/A   Clear
8:15 PM 77.0 °F - 51.8 °F 41% 29.98 in 10.0 mi SW 5.8 mph - N/A   Clear
8:35 PM 75.2 °F - 53.6 °F 47% 29.98 in 10.0 mi SW 6.9 mph - N/A   Clear
8:55 PM 73.4 °F - 53.6 °F 50% 29.98 in 10.0 mi SW 4.6 mph - N/A   Clear
9:15 PM 73.4 °F - 53.6 °F 50% 29.98 in 10.0 mi SSW 6.9 mph - N/A   Clear
9:35 PM 73.4 °F - 53.6 °F 50% 29.99 in 10.0 mi SW 5.8 mph - N/A   Clear
9:55 PM 71.6 °F - 53.6 °F 53% 30.00 in 10.0 mi SW 4.6 mph - N/A   Clear
10:15 PM 71.6 °F - 53.6 °F 53% 30.01 in 10.0 mi SW 4.6 mph - N/A   Clear
10:35 PM 69.8 °F - 53.6 °F 56% 30.02 in 10.0 mi SW 3.5 mph - N/A   Clear
10:55 PM 69.8 °F - 53.6 °F 56% 30.02 in 10.0 mi SW 5.8 mph - N/A   Clear
11:15 PM 69.8 °F - 53.6 °F 56% 30.02 in 10.0 mi SW 5.8 mph - N/A   Clear
11:35 PM 69.8 °F - 53.6 °F 56% 30.02 in 10.0 mi SW 5.8 mph - N/A   Clear
11:55 PM 69.8 °F - 53.6 °F 56% 30.02 in 10.0 mi SW 5.8 mph - N/A   Clear